EW2348 Weather Reports


Display with metric or nautical units.
time (UTC)temp
F
wind
direction
speed
MPH
gust
MPH
rain 1hr
in
rain 24hr
in
rain mn
in
humidity
%
barometer
mb
20170228073841 44 53 1.0 5.0 0.00 0.09 0.00 84 1011.5
20170228073741 44 66 1.0 5.0 0.00 0.09 0.00 84 1011.6
20170228073641 44 72 3.0 5.0 0.00 0.09 0.00 84 1011.5
20170228073542 44 71 3.0 5.0 0.00 0.09 0.00 84 1011.7
20170228073341 44 223 2.0 5.0 0.00 0.09 0.00 85 1011.7
20170228072942 44 170 1.0 5.0 0.00 0.09 0.00 84 1011.4
20170228072841 44 128 1.0 5.0 0.00 0.09 0.00 84 1011.6
20170228072742 44 114 2.0 6.0 0.00 0.09 0.00 84 1011.6
20170228072642 44 95 2.0 6.0 0.00 0.09 0.00 84 1011.7
20170228072542 44 82 2.0 6.0 0.00 0.09 0.00 84 1011.6
20170228072441 44 78 2.0 6.0 0.00 0.09 0.00 84 1011.7
20170228072141 44 76 3.0 6.0 0.00 0.09 0.00 85 1011.8
20170228072041 44 72 4.0 6.0 0.00 0.09 0.00 85 1012.0
20170228071842 44 78 3.0 6.0 0.00 0.09 0.00 85 1012.1
20170228071741 44 77 3.0 6.0 0.00 0.09 0.00 85 1012.2
20170228071641 44 80 3.0 6.0 0.00 0.09 0.00 85 1012.1
20170228071442 44 78 2.0 6.0 0.00 0.09 0.00 85 1012.2
20170228071241 43 71 2.0 6.0 0.00 0.09 0.00 85 1012.2
20170228071141 43 71 2.0 6.0 0.00 0.09 0.00 85 1012.2
20170228071042 43 73 3.0 6.0 0.00 0.09 0.00 85 1012.3
20170228070841 43 71 3.0 6.0 0.00 0.09 0.00 85 1012.3
20170228070642 43 75 3.0 7.0 0.00 0.09 0.00 85 1012.4
20170228070542 43 73 4.0 7.0 0.00 0.09 0.00 86 1012.4
20170228070341 43 74 3.0 7.0 0.00 0.09 0.00 86 1012.4
20170228070242 43 69 3.0 8.0 0.00 0.09 0.00 86 1012.3
20170228070041 43 68 3.0 8.0 0.00 0.09 0.00 85 1012.4
20170228065941 43 67 3.0 8.0 0.00 0.09 0.00 86 1012.3
20170228065841 43 65 3.0 8.0 0.00 0.09 0.00 86 1012.4
20170228065742 43 65 3.0 8.0 0.00 0.09 0.00 86 1012.4
20170228065541 43 70 3.0 8.0 0.00 0.09 0.00 86 1012.4
20170228065441 43 70 3.0 8.0 0.00 0.09 0.00 85 1012.7
20170228065241 43 69 5.0 9.0 0.00 0.09 0.00 86 1012.6
20170228065142 43 74 4.0 9.0 0.00 0.09 0.00 86 1012.6
20170228064941 43 76 4.0 9.0 0.00 0.09 0.00 85 1012.5
20170228064841 43 74 4.0 9.0 0.00 0.09 0.00 84 1012.7
20170228064642 43 63 5.0 9.0 0.00 0.09 0.00 84 1012.7
20170228064541 43 62 3.0 9.0 0.00 0.09 0.00 84 1012.7
20170228064342 43 73 5.0 9.0 0.00 0.09 0.00 84 1012.6
20170228064041 43 73 4.0 7.0 0.00 0.09 0.00 83 1012.8
20170228063841 44 79 3.0 7.0 0.00 0.09 0.00 83 1012.6
20170228063741 44 82 3.0 7.0 0.00 0.09 0.00 82 1012.7
20170228063542 44 84 4.0 7.0 0.00 0.09 0.00 82 1012.8
20170228063242 44 75 5.0 10.0 0.00 0.09 0.00 82 1012.7
20170228063141 44 72 4.0 10.0 0.00 0.09 0.00 82 1012.9
20170228063041 44 73 3.0 10.0 0.00 0.09 0.00 82 1012.8
20170228062942 44 70 5.0 10.0 0.00 0.09 0.00 82 1012.6
20170228062841 44 69 3.0 10.0 0.00 0.09 0.00 82 1012.5
20170228062741 44 64 5.0 10.0 0.00 0.09 0.00 82 1012.5
20170228062641 45 59 5.0 10.0 0.00 0.09 0.00 81 1012.4
20170228062442 45 54 5.0 10.0 0.00 0.09 0.00 81 1012.3
20170228062341 45 56 5.0 10.0 0.00 0.09 0.00 81 1012.4
20170228062141 44 64 5.0 7.0 0.00 0.09 0.00 82 1012.3
20170228062041 44 63 4.0 8.0 0.00 0.09 0.00 82 1012.4
20170228061941 44 67 5.0 8.0 0.00 0.09 0.00 82 1012.3
20170228061641 45 76 4.0 8.0 0.00 0.09 0.00 81 1012.6
20170228061541 44 81 4.0 8.0 0.00 0.09 0.00 82 1012.8
20170228061341 45 90 5.0 8.0 0.00 0.09 0.00 80 1012.9
20170228061241 45 88 5.0 8.0 0.00 0.09 0.00 80 1012.8
20170228061143 45 88 3.0 8.0 0.00 0.09 0.00 80 1012.9
20170228060742 45 84 5.0 7.0 0.00 0.09 0.00 80 1012.9
20170228060541 45 78 4.0 7.0 0.00 0.09 0.00 81 1012.8
20170228060242 45 67 4.0 7.0 0.00 0.09 0.00 81 1013.2
20170228060145 45 56 4.0 7.0 0.00 0.09 0.00 81 1012.9
20170228055941 45 26 4.0 7.0 0.00 0.09 0.00 81 1012.9
20170228055842 45 13 4.0 7.0 0.00 0.09 0.00 81 1012.9
20170228055742 45 1 5.0 7.0 0.00 0.09 0.00 81 1013.1
20170228055441 45 344 2.0 5.0 0.00 0.09 0.00 82 1012.9
20170228055342 45 352 2.0 5.0 0.00 0.09 0.00 82 1013.1
20170228055241 45 351 2.0 5.0 0.00 0.09 0.00 82 1013.0
20170228055141 45 11 2.0 5.0 0.00 0.09 0.00 82 1012.9
20170228054942 45 28 3.0 5.0 0.00 0.09 0.00 82 1012.9
20170228054841 45 31 2.0 5.0 0.00 0.09 0.00 82 1013.1
20170228054541 44 35 3.0 6.0 0.00 0.09 0.00 83 1013.1
20170228054452 44 60 3.0 6.0 0.00 0.09 0.00 83 1013.2
20170228054241 44 65 2.0 6.0 0.00 0.09 0.00 83 1013.1
20170228054141 44 52 3.0 6.0 0.00 0.09 0.00 83 1013.2
20170228054041 44 52 3.0 6.0 0.00 0.09 0.00 83 1013.3
20170228053841 44 69 3.0 6.0 0.00 0.09 0.00 84 1013.4
20170228053641 44 59 3.0 6.0 0.00 0.09 0.00 84 1013.3
20170228053441 44 42 3.0 5.0 0.00 0.09 0.00 84 1013.3
20170228053341 44 43 3.0 5.0 0.00 0.09 0.00 84 1013.3
20170228052541 44 61 3.0 5.0 0.00 0.09 0.00 84 1013.5
20170228052041 44 65 3.0 5.0 0.00 0.09 0.00 85 1013.4
20170228051941 44 57 2.0 5.0 0.00 0.09 0.00 85 1013.4
20170228051541 44 12 2.0 4.0 0.00 0.09 0.00 86 1013.4
20170228051441 44 5 2.0 4.0 0.00 0.09 0.00 86 1013.5
20170228051341 44 356 1.0 4.0 0.00 0.09 0.00 86 1013.4
20170228051241 44 344 1.0 4.0 0.00 0.09 0.00 86 1013.6
20170228050841 44 6 1.0 4.0 0.00 0.09 0.00 86 1013.6
20170228050741 44 27 1.0 4.0 0.00 0.09 0.00 86 1013.7
20170228050541 44 47 1.0 4.0 0.00 0.09 0.00 86 1013.8
20170228045942 44 84 2.0 5.0 0.00 0.09 0.09 86 1013.9
20170228045841 44 90 2.0 5.0 0.00 0.09 0.09 86 1013.8
20170228045742 44 97 2.0 5.0 0.00 0.09 0.09 86 1013.9
20170228045642 43 95 3.0 5.0 0.00 0.09 0.09 87 1013.9
20170228045541 44 93 2.0 5.0 0.00 0.09 0.09 87 1014.1
20170228045442 44 96 2.0 5.0 0.00 0.09 0.09 87 1013.8
20170228045341 44 96 2.0 5.0 0.00 0.09 0.09 87 1013.9
20170228045241 44 90 3.0 5.0 0.00 0.09 0.09 87 1014.0
20170228045041 43 64 2.0 4.0 0.00 0.09 0.09 87 1013.6
20170228044941 43 52 2.0 4.0 0.00 0.09 0.09 87 1013.7
20170228044741 43 36 3.0 4.0 0.00 0.09 0.09 87 1013.7
20170228044641 43 29 3.0 4.0 0.00 0.09 0.09 87 1014.1
20170228044341 43 51 1.0 3.0 0.00 0.09 0.09 87 1013.8
20170228044241 43 52 2.0 3.0 0.00 0.09 0.09 87 1014.1
20170228044141 43 59 1.0 4.0 0.00 0.09 0.09 87 1013.8
20170228044041 43 67 2.0 5.0 0.00 0.09 0.09 87 1014.0
20170228043741 43 69 2.0 5.0 0.00 0.09 0.09 87 1014.0
20170228043641 43 74 3.0 5.0 0.00 0.09 0.09 87 1014.0
20170228043541 43 75 2.0 5.0 0.00 0.09 0.09 87 1013.9
20170228043441 43 77 3.0 5.0 0.00 0.09 0.09 87 1013.8
20170228043141 44 79 3.0 5.0 0.00 0.09 0.09 87 1014.0
20170228043041 43 76 3.0 5.0 0.00 0.09 0.09 87 1013.9
20170228042941 44 77 3.0 5.0 0.00 0.09 0.09 87 1013.9
20170228042741 44 74 3.0 5.0 0.00 0.09 0.09 87 1014.0
20170228042641 44 71 3.0 5.0 0.00 0.09 0.09 87 1014.1
20170228042341 44 58 3.0 5.0 0.00 0.09 0.09 87 1014.0
20170228042241 44 61 3.0 5.0 0.00 0.09 0.09 88 1013.8
20170228042141 44 55 3.0 5.0 0.00 0.09 0.09 88 1014.0
20170228041641 43 59 3.0 4.0 0.00 0.09 0.09 88 1013.9
20170228041541 43 63 3.0 4.0 0.00 0.09 0.09 88 1013.9
20170228041341 44 74 2.0 4.0 0.00 0.09 0.09 88 1013.9
20170228041241 43 80 2.0 4.0 0.00 0.09 0.09 88 1013.9
20170228040941 44 90 2.0 3.0 0.00 0.09 0.09 89 1013.9
20170228040841 44 92 1.0 3.0 0.00 0.09 0.09 89 1013.9
20170228040740 44 90 3.0 4.0 0.00 0.09 0.09 89 1014.0
20170228040641 44 90 2.0 4.0 0.00 0.09 0.09 92 1014.0
20170228040541 44 90 2.0 4.0 0.00 0.09 0.09 92 1014.0
20170228040441 44 90 2.0 4.0 0.00 0.09 0.09 92 1014.0
20170228040341 44 90 2.0 4.0 0.00 0.09 0.09 92 1014.0
20170228040141 44 90 2.0 4.0 0.00 0.09 0.09 92 1013.9
20170228035842 43 86 3.0 4.0 0.00 0.09 0.09 92 1014.0
20170228035641 43 282 2.0 3.0 0.00 0.09 0.09 92 1013.9
20170228035441 43 290 0.0 3.0 0.00 0.09 0.09 92 1013.7
20170228035342 43 286 0.0 3.0 0.00 0.09 0.09 92 1013.7
20170228034841 43 308 0.0 3.0 0.00 0.09 0.09 92 1013.6
20170228034742 43 331 1.0 3.0 0.00 0.09 0.09 92 1013.4
20170228034642 43 36 1.0 3.0 0.00 0.09 0.09 92 1013.7
20170228034041 43 83 1.0 4.0 0.00 0.09 0.09 92 1013.6
20170228033941 43 89 1.0 5.0 0.00 0.09 0.09 92 1013.7
20170228033641 43 74 1.0 5.0 0.00 0.09 0.09 92 1014.0
20170228033541 43 65 1.0 5.0 0.00 0.09 0.09 92 1013.9
20170228033342 43 66 3.0 5.0 0.00 0.09 0.09 92 1013.7
20170228033241 43 66 3.0 5.0 0.00 0.09 0.09 92 1013.9
20170228033041 44 63 3.0 5.0 0.00 0.09 0.09 92 1013.8
20170228032941 43 56 3.0 5.0 0.00 0.09 0.09 93 1013.9
20170228032841 43 54 2.0 5.0 0.00 0.09 0.09 93 1014.0
20170228032641 43 65 3.0 4.0 0.00 0.09 0.09 92 1013.7
20170228031941 44 156 1.0 5.0 0.00 0.09 0.09 93 1013.7
20170228031741 44 171 1.0 5.0 0.00 0.09 0.09 93 1013.8
20170228031541 43 229 1.0 5.0 0.00 0.09 0.09 93 1013.6
20170228031441 43 242 3.0 5.0 0.00 0.09 0.09 93 1013.8
20170228031141 43 88 1.0 4.0 0.00 0.09 0.09 93 1013.8
20170228031041 43 60 1.0 4.0 0.00 0.09 0.09 92 1014.0
20170228030941 43 63 1.0 4.0 0.00 0.09 0.09 92 1013.8
20170228030541 43 328 1.0 5.0 0.00 0.09 0.09 92 1013.9
20170228030441 44 330 1.0 5.0 0.00 0.09 0.09 92 1013.8
20170228030341 44 342 1.0 5.0 0.00 0.09 0.09 92 1013.9
20170228030141 44 346 1.0 5.0 0.00 0.09 0.09 92 1013.8
20170228025841 44 355 1.0 5.0 0.00 0.09 0.09 92 1014.0
20170228025641 44 10 2.0 5.0 0.00 0.09 0.09 92 1014.1
20170228025540 44 37 1.0 5.0 0.00 0.09 0.09 92 1013.9
20170228025441 44 49 2.0 5.0 0.00 0.09 0.09 92 1013.9
20170228025343 44 49 2.0 5.0 0.00 0.09 0.09 92 1014.1
20170228025241 44 31 2.0 5.0 0.00 0.09 0.09 93 1014.1
20170228025141 44 29 2.0 5.0 0.00 0.09 0.09 93 1014.4
20170228025041 44 28 3.0 5.0 0.00 0.09 0.09 93 1014.2
20170228024741 44 40 2.0 5.0 0.00 0.09 0.09 92 1014.2
20170228024441 44 342 3.0 7.0 0.00 0.09 0.09 92 1014.3
20170228024141 44 355 2.0 7.0 0.00 0.09 0.09 92 1014.0
20170228023941 44 24 1.0 7.0 0.00 0.09 0.09 92 1014.1
20170228023841 44 34 1.0 7.0 0.00 0.09 0.09 92 1014.0
20170228023640 44 9 3.0 7.0 0.00 0.09 0.09 92 1013.9
20170228023541 44 2 2.0 7.0 0.00 0.09 0.09 92 1013.8
20170228023341 44 57 1.0 5.0 0.00 0.09 0.09 92 1013.9
20170228023241 44 64 1.0 5.0 0.00 0.09 0.09 91 1013.8
20170228023140 44 44 3.0 6.0 0.00 0.09 0.09 91 1013.9
20170228023041 44 351 3.0 6.0 0.00 0.09 0.09 92 1014.0
20170228022741 44 317 3.0 6.0 0.00 0.09 0.09 91 1013.9
20170228022641 44 341 2.0 6.0 0.00 0.09 0.09 91 1013.8
20170228022541 44 342 1.0 6.0 0.00 0.09 0.09 91 1013.8
20170228022341 45 318 2.0 6.0 0.00 0.09 0.09 90 1013.9
20170228022241 45 309 2.0 6.0 0.00 0.09 0.09 90 1014.0
20170228022141 45 312 3.0 6.0 0.00 0.09 0.09 90 1013.8
20170228022041 45 307 5.0 5.0 0.00 0.09 0.09 90 1013.8
20170228021841 44 305 1.0 5.0 0.00 0.09 0.09 91 1013.8
20170228021741 44 314 3.0 5.0 0.00 0.09 0.09 91 1013.8
20170228021641 45 312 1.0 5.0 0.00 0.09 0.09 90 1013.8
20170228021541 45 326 2.0 5.0 0.00 0.09 0.09 90 1013.8
20170228021441 45 340 1.0 4.0 0.00 0.09 0.09 90 1013.8
20170228021341 45 343 2.0 4.0 0.00 0.09 0.09 90 1013.9
20170228021240 44 349 1.0 4.0 0.00 0.09 0.09 91 1013.9
20170228021141 45 355 1.0 4.0 0.00 0.09 0.09 90 1013.9
20170228020941 45 1 1.0 4.0 0.00 0.09 0.09 90 1014.1
20170228020741 45 356 1.0 4.0 0.00 0.09 0.09 90 1014.0
20170228020541 45 356 1.0 4.0 0.00 0.09 0.09 90 1014.0
20170228020441 45 351 1.0 4.0 0.00 0.09 0.09 90 1014.1
20170228020241 45 345 1.0 4.0 0.00 0.09 0.09 90 1014.0
20170228015741 44 328 1.0 3.0 0.00 0.09 0.09 90 1014.2
20170228015541 45 311 0.0 5.0 0.00 0.09 0.09 89 1013.9
20170228015141 45 330 0.0 5.0 0.00 0.09 0.09 89 1014.0
20170228015041 45 328 1.0 5.0 0.00 0.09 0.09 89 1013.9
20170228014941 45 333 2.0 5.0 0.00 0.09 0.09 89 1013.8
20170228014741 45 338 1.0 5.0 0.00 0.09 0.09 90 1013.8
20170228014641 45 344 1.0 5.0 0.00 0.09 0.09 90 1013.8
20170228014441 45 341 1.0 3.0 0.00 0.09 0.09 90 1013.9
20170228014341 45 354 1.0 4.0 0.00 0.09 0.09 90 1013.9
20170228014241 45 347 1.0 4.0 0.00 0.09 0.09 90 1013.8
20170228014141 45 334 0.0 4.0 0.00 0.09 0.09 89 1014.1
20170228014041 45 330 0.0 4.0 0.00 0.09 0.09 89 1013.7
20170228013741 45 324 1.0 4.0 0.00 0.09 0.09 89 1013.7
20170228013641 45 314 0.0 4.0 0.00 0.09 0.09 89 1013.8
20170228013441 45 315 3.0 4.0 0.00 0.09 0.09 89 1013.7
20170228013241 45 307 1.0 4.0 0.00 0.09 0.09 89 1013.7
20170228013141 45 312 1.0 4.0 0.00 0.09 0.09 89 1013.7
20170228012941 45 313 1.0 4.0 0.00 0.09 0.09 90 1013.6
20170228012841 45 316 1.0 4.0 0.00 0.09 0.09 90 1013.7
20170228012741 45 319 1.0 4.0 0.00 0.09 0.09 90 1013.6
20170228012541 45 327 3.0 4.0 0.00 0.09 0.09 90 1013.5
20170228012241 45 338 0.0 3.0 0.00 0.09 0.09 89 1013.6
20170228012141 45 332 0.0 3.0 0.00 0.09 0.09 89 1013.8
20170228012041 45 334 0.0 3.0 0.00 0.09 0.09 89 1013.7
20170228011941 45 322 1.0 3.0 0.00 0.09 0.09 89 1013.6
20170228011541 45 325 1.0 4.0 0.00 0.09 0.09 88 1013.7
20170228011441 45 318 0.0 4.0 0.00 0.09 0.09 88 1013.7
20170228011341 45 311 0.0 4.0 0.00 0.09 0.09 88 1013.8
20170228011240 46 304 0.0 4.0 0.00 0.09 0.09 88 1013.8
20170228010941 45 311 1.0 4.0 0.00 0.09 0.09 88 1013.8
20170228010441 46 309 1.0 3.0 0.00 0.09 0.09 89 1013.7
20170228010341 46 322 2.0 3.0 0.00 0.09 0.09 89 1013.7
20170228010141 45 329 1.0 5.0 0.00 0.09 0.09 89 1013.7
20170228005940 46 329 1.0 5.0 0.00 0.09 0.09 89 1013.8
20170228005841 46 330 1.0 5.0 0.00 0.09 0.09 89 1013.6
20170228005641 46 337 0.0 5.0 0.00 0.09 0.09 89 1013.6
20170228005541 46 335 1.0 5.0 0.00 0.09 0.09 89 1013.5
20170228005441 46 340 1.0 5.0 0.00 0.09 0.09 89 1013.7
20170228005340 46 331 1.0 5.0 0.00 0.09 0.09 89 1013.7
20170228005241 46 314 1.0 5.0 0.00 0.09 0.09 90 1013.8
20170228005141 46 307 1.0 4.0 0.00 0.09 0.09 90 1013.6
20170228005041 46 303 1.0 4.0 0.00 0.09 0.09 90 1013.6
20170228004941 46 288 1.0 4.0 0.00 0.09 0.09 90 1013.7
20170228004841 46 286 1.0 4.0 0.00 0.09 0.09 90 1013.5
20170228004740 45 279 1.0 4.0 0.00 0.09 0.09 91 1013.5
20170228004641 46 280 1.0 4.0 0.00 0.09 0.09 91 1013.6
20170228004341 46 264 1.0 4.0 0.00 0.09 0.09 91 1013.6
20170228004140 45 259 1.0 4.0 0.00 0.09 0.09 91 1013.6
20170228004041 45 257 3.0 4.0 0.00 0.09 0.09 91 1013.4
20170228003941 45 258 1.0 3.0 0.00 0.09 0.09 91 1013.5
20170228003841 45 256 0.0 3.0 0.00 0.09 0.09 91 1013.7
20170228003741 45 266 0.0 3.0 0.00 0.09 0.09 91 1013.8
20170228003641 45 272 1.0 3.0 0.00 0.09 0.09 91 1013.6
20170228003541 45 272 1.0 3.0 0.00 0.09 0.09 91 1013.7
20170228003441 46 275 1.0 3.0 0.00 0.09 0.09 91 1013.5
20170228003241 45 296 1.0 3.0 0.00 0.09 0.09 91 1013.7
20170228003041 46 309 0.0 3.0 0.00 0.09 0.09 91 1013.6
20170228002941 46 314 1.0 3.0 0.00 0.09 0.09 91 1013.6
20170228002841 46 317 1.0 3.0 0.00 0.09 0.09 91 1013.6
20170228002640 46 321 1.0 3.0 0.00 0.09 0.09 91 1013.7
20170228002541 46 332 0.0 3.0 0.00 0.09 0.09 91 1013.6
20170228002441 46 341 1.0 3.0 0.00 0.09 0.09 91 1013.6
20170228002341 45 344 1.0 3.0 0.00 0.09 0.09 91 1013.7
20170228002241 45 351 0.0 3.0 0.00 0.09 0.09 91 1013.5
20170228002040 46 351 0.0 3.0 0.00 0.09 0.09 91 1013.7
20170228001941 46 352 1.0 3.0 0.00 0.09 0.09 91 1013.4
20170228001841 45 351 1.0 3.0 0.00 0.09 0.09 91 1013.7
20170228001641 46 350 1.0 3.0 0.00 0.09 0.09 91 1013.5
20170228001540 45 353 1.0 3.0 0.00 0.09 0.09 90 1013.6
20170228001441 46 353 1.0 3.0 0.00 0.09 0.09 90 1013.5
20170228001241 46 349 0.0 3.0 0.00 0.09 0.09 90 1013.6
20170228000841 46 1 1.0 3.0 0.00 0.09 0.09 89 1013.7
20170228000741 46 1 0.0 3.0 0.00 0.09 0.09 89 1013.6
20170228000341 46 330 0.0 3.0 0.00 0.09 0.09 88 1013.4
20170228000241 46 311 0.0 3.0 0.00 0.09 0.09 88 1013.4
20170228000141 46 311 0.0 3.0 0.00 0.09 0.09 88 1013.5
20170228000041 46 322 0.0 3.0 0.00 0.09 0.09 88 1013.5
20170227235941 46 330 0.0 3.0 0.00 0.09 0.09 88 1013.5
20170227235840 46 327 1.0 3.0 0.00 0.09 0.09 88 1013.6
20170227235741 46 312 0.0 3.0 0.00 0.09 0.09 88 1013.6
20170227235441 46 306 0.0 3.0 0.00 0.09 0.09 88 1013.8
20170227235241 46 306 0.0 2.0 0.00 0.09 0.09 87 1013.7
20170227235141 46 318 0.0 2.0 0.00 0.09 0.09 87 1013.9
20170227235041 46 305 1.0 2.0 0.00 0.09 0.09 87 1014.0
20170227234741 46 283 0.0 1.0 0.00 0.09 0.09 87 1013.7
20170227234640 46 283 0.0 1.0 0.00 0.09 0.09 87 1013.9
20170227234441 46 287 0.0 1.0 0.00 0.09 0.09 87 1013.6
20170227234241 46 45 1.0 1.0 0.00 0.09 0.09 86 1013.9
20170227234141 46 0 0.0 0.0 0.00 0.09 0.09 86 1013.8
20170227233941 46 270 0.0 1.0 0.00 0.09 0.09 86 1013.7
20170227233841 46 278 0.0 1.0 0.00 0.09 0.09 86 1013.7
20170227233641 46 333 0.0 3.0 0.00 0.09 0.09 86 1013.7
20170227233341 46 306 0.0 3.0 0.00 0.09 0.09 86 1013.7
20170227233140 47 302 0.0 3.0 0.00 0.09 0.09 86 1013.6
20170227233041 47 303 0.0 3.0 0.00 0.09 0.09 86 1013.7
20170227232941 47 309 1.0 3.0 0.00 0.09 0.09 86 1013.5
20170227232841 47 308 0.0 3.0 0.00 0.09 0.09 86 1013.7
20170227232741 47 298 1.0 3.0 0.00 0.09 0.09 85 1013.5
20170227232541 47 287 1.0 2.0 0.00 0.09 0.09 85 1013.5
20170227232341 47 289 1.0 2.0 0.00 0.09 0.09 85 1013.7
20170227232241 47 283 1.0 2.0 0.00 0.09 0.09 85 1013.7
20170227231941 47 314 0.0 3.0 0.00 0.09 0.09 85 1013.5
20170227231841 47 324 1.0 3.0 0.00 0.09 0.09 85 1013.5
20170227231741 47 337 0.0 3.0 0.00 0.09 0.09 84 1013.6
20170227231341 47 348 0.0 4.0 0.00 0.09 0.09 83 1013.8
20170227231241 47 349 0.0 4.0 0.00 0.09 0.09 83 1013.5
20170227231141 47 341 1.0 4.0 0.00 0.09 0.09 83 1013.5
20170227231041 47 327 1.0 4.0 0.00 0.09 0.09 83 1013.8
20170227230941 47 317 0.0 4.0 0.00 0.09 0.09 83 1013.9
20170227230841 48 311 0.0 4.0 0.00 0.09 0.09 82 1013.6
20170227230741 48 310 0.0 4.0 0.00 0.09 0.09 82 1013.6
20170227230541 48 303 1.0 4.0 0.00 0.09 0.09 82 1013.7
20170227230341 48 283 1.0 4.0 0.00 0.09 0.09 82 1013.7
20170227230241 48 270 0.0 3.0 0.00 0.09 0.09 81 1013.7
20170227230141 48 290 1.0 3.0 0.00 0.09 0.09 81 1013.6
20170227230041 48 23 1.0 3.0 0.00 0.09 0.09 80 1013.8
20170227225940 48 28 0.0 3.0 0.00 0.09 0.09 81 1013.8
20170227225840 49 21 0.0 3.0 0.00 0.09 0.09 80 1013.8
20170227225741 49 10 0.0 3.0 0.00 0.09 0.09 80 1013.7
20170227225641 49 323 0.0 3.0 0.00 0.09 0.09 80 1013.7
20170227225441 49 354 1.0 3.0 0.00 0.09 0.09 80 1013.9
20170227225241 49 294 1.0 3.0 0.00 0.09 0.09 79 1013.7
20170227224941 49 296 1.0 3.0 0.00 0.09 0.09 79 1013.7
20170227224841 49 289 0.0 3.0 0.00 0.09 0.09 79 1013.7
20170227224741 49 310 0.0 3.0 0.00 0.09 0.09 79 1013.7
20170227224641 50 337 1.0 3.0 0.00 0.09 0.09 79 1013.9
20170227224441 50 317 1.0 3.0 0.00 0.09 0.09 79 1013.8
20170227224141 50 339 0.0 3.0 0.00 0.09 0.09 82 1013.9
20170227223941 50 335 1.0 3.0 0.00 0.09 0.09 82 1013.7
20170227223741 48 336 1.0 3.0 0.00 0.09 0.09 82 1013.6
20170227223640 48 327 1.0 3.0 0.00 0.09 0.09 82 1013.8
20170227223341 49 352 1.0 4.0 0.00 0.09 0.09 83 1013.7
20170227223241 49 337 0.0 4.0 0.00 0.09 0.09 83 1013.8
20170227223141 49 313 1.0 5.0 0.00 0.09 0.09 83 1013.8
20170227222840 49 299 1.0 5.0 0.00 0.09 0.09 83 1013.6
20170227222741 48 291 1.0 5.0 0.00 0.09 0.09 83 1013.7
20170227222641 49 288 0.0 5.0 0.00 0.09 0.09 82 1013.6
20170227222541 49 284 1.0 5.0 0.00 0.09 0.09 82 1013.6
20170227222341 49 281 1.0 5.0 0.00 0.09 0.09 82 1013.7
20170227222240 49 287 2.0 5.0 0.00 0.09 0.09 83 1013.7
20170227222141 48 299 1.0 5.0 0.00 0.09 0.09 83 1013.7
20170227221941 48 314 1.0 4.0 0.00 0.09 0.09 83 1013.8
20170227221740 48 319 1.0 4.0 0.00 0.09 0.09 82 1013.7
20170227221641 49 323 1.0 4.0 0.00 0.09 0.09 81 1013.9
20170227221541 49 323 2.0 4.0 0.00 0.09 0.09 80 1013.9
20170227221341 49 323 3.0 4.0 0.00 0.09 0.09 80 1013.7
20170227221240 49 322 1.0 3.0 0.00 0.09 0.09 80 1013.9
20170227221140 49 317 2.0 3.0 0.00 0.09 0.09 80 1013.9
20170227221041 50 316 2.0 3.0 0.00 0.09 0.09 81 1013.7
20170227220741 50 320 1.0 2.0 0.00 0.09 0.09 80 1013.8
20170227220641 49 325 1.0 2.0 0.00 0.09 0.09 83 1013.8
20170227220441 49 330 1.0 2.0 0.00 0.09 0.09 83 1013.9
20170227220241 49 332 1.0 2.0 0.00 0.09 0.09 83 1014.0
20170227215741 50 327 1.0 5.0 0.00 0.09 0.09 83 1013.8
20170227215641 49 328 0.0 5.0 0.00 0.09 0.09 84 1014.0
20170227215441 49 327 0.0 5.0 0.00 0.09 0.09 84 1013.9
20170227215340 49 330 1.0 5.0 0.00 0.09 0.09 84 1013.9
20170227215241 49 322 1.0 5.0 0.00 0.09 0.09 84 1013.9
20170227215141 49 325 1.0 5.0 0.00 0.09 0.09 84 1013.9
20170227214941 49 321 2.0 5.0 0.00 0.09 0.09 85 1013.8
20170227214841 49 328 1.0 5.0 0.00 0.09 0.09 85 1013.8
20170227214341 48 324 1.0 4.0 0.00 0.09 0.09 86 1013.9
20170227214241 49 330 0.0 4.0 0.00 0.09 0.09 86 1013.7
20170227214040 49 330 2.0 4.0 0.00 0.09 0.09 86 1013.7
20170227213941 48 327 0.0 4.0 0.00 0.09 0.09 86 1013.8
20170227213741 48 320 0.0 4.0 0.00 0.09 0.09 86 1013.8
20170227213641 48 314 2.0 4.0 0.00 0.09 0.09 86 1013.8
20170227213540 48 310 2.0 4.0 0.00 0.09 0.09 86 1013.8
20170227213340 48 320 0.0 4.0 0.00 0.09 0.09 86 1013.7
20170227213141 48 329 1.0 4.0 0.00 0.09 0.09 87 1013.8
20170227213041 48 329 1.0 4.0 0.00 0.09 0.09 86 1013.8
20170227212840 48 336 1.0 4.0 0.00 0.09 0.09 87 1013.9
20170227212740 48 345 2.0 4.0 0.00 0.09 0.09 88 1013.9
20170227212541 48 29 1.0 5.0 0.00 0.09 0.09 88 1013.9
20170227212041 48 76 1.0 5.0 0.00 0.09 0.09 89 1013.8
20170227211941 48 75 1.0 5.0 0.00 0.09 0.09 89 1013.8
20170227211841 48 65 1.0 7.0 0.00 0.09 0.09 89 1013.7
20170227211540 47 2 2.0 7.0 0.00 0.09 0.09 90 1013.9
20170227211441 48 343 2.0 7.0 0.00 0.09 0.09 90 1014.0
20170227211141 48 324 1.0 7.0 0.00 0.09 0.09 90 1013.8
20170227210941 47 39 1.0 7.0 0.00 0.09 0.09 90 1013.8
20170227210841 47 81 6.0 7.0 0.00 0.09 0.09 90 1013.9
20170227210741 47 72 1.0 5.0 0.00 0.09 0.09 91 1013.8
20170227210540 47 85 2.0 5.0 0.00 0.09 0.09 91 1013.9
20170227210441 47 87 1.0 5.0 0.00 0.09 0.09 91 1013.7
20170227210141 47 38 1.0 6.0 0.00 0.09 0.09 92 1013.8
20170227210041 47 38 3.0 6.0 0.00 0.09 0.09 92 1013.9
20170227205941 47 36 3.0 6.0 0.00 0.09 0.09 92 1013.8
20170227205541 46 33 0.0 7.0 0.00 0.09 0.09 92 1014.0
20170227205441 46 25 4.0 7.0 0.00 0.09 0.09 93 1013.9
20170227205241 46 43 3.0 7.0 0.00 0.09 0.09 93 1014.0
20170227205040 46 32 2.0 7.0 0.00 0.09 0.09 93 1014.0
20170227204540 46 45 2.0 5.0 0.00 0.09 0.09 93 1013.9
20170227204241 47 25 2.0 4.0 0.00 0.09 0.09 94 1013.7
20170227203941 47 343 3.0 4.0 0.00 0.09 0.09 93 1013.8
20170227203741 47 351 2.0 4.0 0.00 0.09 0.09 94 1013.8
20170227203541 47 342 2.0 4.0 0.00 0.09 0.09 93 1013.9
20170227203441 46 26 1.0 5.0 0.00 0.09 0.09 93 1013.8
20170227203340 46 48 1.0 5.0 0.00 0.09 0.09 93 1014.0
20170227203241 46 68 1.0 5.0 0.00 0.09 0.09 93 1013.9
20170227203141 46 79 1.0 5.0 0.00 0.09 0.09 92 1014.0
20170227202941 46 84 1.0 5.0 0.00 0.09 0.09 93 1014.1
20170227202840 46 82 3.0 5.0 0.00 0.09 0.09 93 1014.0
20170227202741 46 79 1.0 5.0 0.00 0.09 0.09 93 1014.1
20170227201841 46 49 4.0 6.0 0.00 0.09 0.09 94 1014.3
20170227201741 46 46 3.0 6.0 0.00 0.09 0.09 94 1014.1
20170227201640 46 40 2.0 6.0 0.00 0.09 0.09 94 1014.5
20170227201540 46 38 4.0 6.0 0.00 0.09 0.09 94 1014.0
20170227201441 46 37 2.0 6.0 0.00 0.09 0.09 94 1014.2
20170227201341 46 35 3.0 6.0 0.00 0.09 0.09 95 1014.2
20170227201241 46 41 2.0 6.0 0.00 0.09 0.09 95 1014.1
20170227201140 46 41 3.0 6.0 0.00 0.09 0.09 95 1014.2
20170227200841 46 43 2.0 6.0 0.00 0.09 0.09 96 1014.2
20170227200641 46 43 1.0 4.0 0.00 0.09 0.09 97 1014.4
20170227200540 46 25 1.0 4.0 0.00 0.09 0.09 97 1014.3
20170227200241 46 356 1.0 5.0 0.00 0.09 0.09 97 1014.1
20170227200141 46 346 1.0 5.0 0.00 0.09 0.09 97 1014.3
20170227200041 46 356 1.0 5.0 0.00 0.09 0.09 97 1014.1
20170227195941 46 343 1.0 5.0 0.00 0.09 0.09 97 1014.3
20170227195741 46 340 1.0 5.0 0.00 0.09 0.09 97 1014.1
20170227195641 45 339 1.0 5.0 0.00 0.09 0.09 97 1014.2
20170227195240 46 26 3.0 4.0 0.00 0.09 0.09 97 1014.2
20170227195141 46 24 1.0 4.0 0.00 0.09 0.09 97 1014.4
20170227195041 46 343 0.0 3.0 0.00 0.09 0.09 97 1014.4
20170227194841 45 17 1.0 4.0 0.00 0.09 0.09 97 1014.2
20170227194640 45 30 1.0 4.0 0.00 0.09 0.09 97 1014.7
20170227194441 45 55 3.0 4.0 0.00 0.09 0.09 97 1014.5
20170227194241 45 57 0.0 5.0 0.00 0.09 0.09 97 1014.7
20170227194040 44 61 2.0 5.0 0.00 0.09 0.09 98 1014.7
20170227193741 44 47 2.0 5.0 0.01 0.09 0.09 98 1014.6
20170227193641 45 52 1.0 5.0 0.01 0.09 0.09 97 1014.7
20170227193541 44 52 1.0 5.0 0.01 0.09 0.09 98 1014.7
20170227193141 44 51 3.0 5.0 0.01 0.09 0.09 98 1014.8
20170227192841 44 66 2.0 8.0 0.01 0.09 0.09 98 1014.7
20170227192640 44 66 2.0 8.0 0.01 0.09 0.09 98 1014.7
20170227192341 44 78 3.0 8.0 0.01 0.09 0.09 98 1014.7
20170227192241 44 81 3.0 8.0 0.01 0.09 0.09 98 1014.9
20170227192040 43 81 5.0 8.0 0.01 0.09 0.09 98 1014.8
20170227191741 43 75 4.0 9.0 0.01 0.09 0.09 98 1014.9
20170227191640 44 69 3.0 9.0 0.01 0.09 0.09 98 1014.9
20170227191540 44 71 3.0 9.0 0.01 0.09 0.09 98 1014.9
20170227191440 44 67 3.0 9.0 0.01 0.09 0.09 98 1014.8
20170227191241 44 59 4.0 9.0 0.01 0.09 0.09 98 1015.0
20170227191141 44 62 3.0 9.0 0.01 0.09 0.09 98 1015.0
20170227191041 44 57 5.0 9.0 0.01 0.09 0.09 98 1014.9
20170227190940 44 57 5.0 9.0 0.01 0.09 0.09 98 1015.1
20170227190840 44 66 6.0 9.0 0.01 0.09 0.09 98 1014.9
20170227190741 44 66 5.0 9.0 0.01 0.09 0.09 98 1014.9
20170227190541 44 73 3.0 7.0 0.01 0.09 0.09 98 1015.0
20170227190440 44 73 5.0 7.0 0.01 0.09 0.09 98 1014.8
20170227190241 44 78 5.0 7.0 0.01 0.09 0.09 98 1014.9
20170227190141 44 71 4.0 7.0 0.01 0.09 0.09 98 1014.9
20170227190041 44 75 4.0 7.0 0.01 0.09 0.09 98 1014.8
20170227185940 45 77 4.0 7.0 0.01 0.09 0.09 97 1015.0
20170227185841 44 77 3.0 5.0 0.01 0.09 0.09 98 1014.9
20170227185741 44 77 3.0 5.0 0.01 0.09 0.09 98 1014.8
20170227185641 44 71 3.0 5.0 0.01 0.09 0.09 98 1015.0
20170227185541 45 65 2.0 5.0 0.01 0.09 0.09 97 1014.8
20170227185440 45 68 3.0 5.0 0.01 0.09 0.09 97 1014.7
20170227185141 45 67 3.0 7.0 0.01 0.09 0.09 97 1014.7
20170227184941 45 70 1.0 9.0 0.01 0.09 0.09 97 1014.9
20170227184640 45 76 4.0 9.0 0.01 0.09 0.09 97 1014.7
20170227184541 45 80 3.0 9.0 0.01 0.09 0.09 97 1014.7
20170227183941 45 90 5.0 9.0 0.01 0.09 0.09 97 1015.0
20170227183841 45 88 4.0 7.0 0.00 0.08 0.08 97 1014.8
20170227183540 45 86 2.0 6.0 0.00 0.08 0.08 97 1014.7
20170227183441 45 82 3.0 5.0 0.00 0.08 0.08 97 1014.7
20170227183341 45 82 3.0 5.0 0.00 0.08 0.08 97 1014.7
20170227182941 44 48 3.0 5.0 0.00 0.08 0.08 98 1014.7
20170227182641 45 59 1.0 6.0 0.01 0.08 0.08 97 1014.8
20170227182441 45 72 0.0 6.0 0.01 0.08 0.08 97 1014.7
20170227182241 44 80 0.0 6.0 0.01 0.08 0.08 98 1014.9
20170227182140 44 82 1.0 6.0 0.01 0.08 0.08 98 1014.8
20170227182040 45 87 2.0 6.0 0.01 0.08 0.08 97 1015.0
20170227181940 44 89 0.0 6.0 0.01 0.08 0.08 98 1014.9
20170227181841 44 89 3.0 6.0 0.01 0.08 0.08 98 1015.0
20170227181741 44 90 3.0 5.0 0.01 0.08 0.08 98 1015.0
20170227181641 44 94 3.0 5.0 0.01 0.08 0.08 98 1015.2
20170227181440 44 94 3.0 5.0 0.01 0.08 0.08 98 1015.1
20170227181241 44 90 3.0 5.0 0.01 0.08 0.08 98 1015.0
20170227181141 44 90 3.0 5.0 0.01 0.08 0.08 98 1015.2
20170227181041 45 90 0.0 3.0 0.01 0.08 0.08 97 1015.1
20170227180941 44 90 0.0 3.0 0.01 0.08 0.08 98 1015.3
20170227180840 44 90 1.0 7.0 0.01 0.08 0.08 98 1015.4
20170227180641 43 83 2.0 7.0 0.02 0.08 0.08 99 1015.3
20170227180541 43 73 2.0 7.0 0.02 0.08 0.08 99 1015.3
20170227180441 43 67 2.0 7.0 0.02 0.08 0.08 99 1015.4
20170227180340 43 65 2.0 7.0 0.02 0.08 0.08 99 1015.2
20170227180240 43 54 2.0 7.0 0.02 0.08 0.08 99 1015.4
20170227180140 43 43 2.0 7.0 0.02 0.08 0.08 99 1015.4
20170227175740 42 17 3.0 7.0 0.02 0.08 0.08 99 1015.5
20170227175640 42 5 3.0 7.0 0.02 0.08 0.08 99 1015.4
20170227175341 42 22 5.0 7.0 0.02 0.08 0.08 99 1015.5
20170227175040 42 54 2.0 7.0 0.02 0.08 0.08 99 1015.5
20170227174741 42 51 1.0 7.0 0.04 0.08 0.08 99 1015.5
20170227174640 42 53 3.0 7.0 0.04 0.08 0.08 99 1015.8
20170227174540 42 49 3.0 7.0 0.04 0.08 0.08 99 1015.6
20170227174440 42 39 3.0 7.0 0.04 0.08 0.08 99 1015.6
20170227174040 42 44 5.0 7.0 0.04 0.08 0.08 99 1015.7
20170227173841 42 51 1.0 7.0 0.04 0.08 0.08 99 1015.8
20170227173641 42 70 3.0 7.0 0.04 0.08 0.08 99 1015.9
20170227173540 42 72 1.0 7.0 0.04 0.08 0.08 99 1016.0
20170227173440 42 73 2.0 7.0 0.04 0.08 0.08 99 1015.8
20170227173340 42 69 3.0 7.0 0.04 0.08 0.08 99 1015.8
20170227173241 42 71 5.0 7.0 0.04 0.08 0.08 99 1015.9
20170227173141 42 74 5.0 7.0 0.04 0.08 0.08 99 1016.0
20170227172940 42 78 2.0 7.0 0.04 0.08 0.08 99 1016.2
20170227172741 42 90 3.0 7.0 0.02 0.07 0.07 99 1015.9
20170227172641 42 85 3.0 7.0 0.02 0.07 0.07 99 1015.9
20170227172441 42 90 4.0 7.0 0.02 0.07 0.07 99 1015.9
20170227172340 42 90 5.0 8.0 0.02 0.07 0.07 99 1015.9
20170227171840 42 67 3.0 8.0 0.02 0.07 0.07 99 1016.0
20170227171541 42 62 3.0 8.0 0.02 0.07 0.07 99 1016.1
20170227171441 42 56 4.0 8.0 0.02 0.07 0.07 99 1015.9
20170227171240 42 59 3.0 7.0 0.02 0.07 0.07 99 1016.2
20170227171141 42 61 3.0 7.0 0.02 0.07 0.07 99 1015.9
20170227170941 42 70 4.0 9.0 0.02 0.07 0.07 99 1016.1
20170227170840 42 73 3.0 9.0 0.02 0.07 0.07 99 1016.0
20170227170740 42 76 3.0 9.0 0.01 0.06 0.06 99 1016.0
20170227170541 42 78 3.0 9.0 0.01 0.06 0.06 99 1016.1
20170227170342 42 87 3.0 9.0 0.01 0.06 0.06 99 1016.0
20170227170242 42 87 5.0 9.0 0.01 0.06 0.06 99 1016.3
20170227170140 42 86 4.0 9.0 0.01 0.06 0.06 99 1016.3
20170227170042 41 90 3.0 9.0 0.01 0.06 0.06 99 1016.2
20170227165841 42 64 4.0 9.0 0.01 0.06 0.06 99 1016.2
20170227165740 42 60 3.0 9.0 0.01 0.06 0.06 99 1016.1
20170227165640 42 53 2.0 9.0 0.01 0.06 0.06 99 1016.2
20170227165440 42 55 2.0 9.0 0.01 0.06 0.06 99 1016.2
20170227165341 42 57 3.0 9.0 0.01 0.06 0.06 99 1016.2
20170227165241 42 59 3.0 9.0 0.01 0.06 0.06 99 1016.1
20170227165141 41 66 4.0 9.0 0.01 0.06 0.06 99 1016.1
20170227165040 42 64 3.0 9.0 0.01 0.06 0.06 99 1016.0
20170227164940 42 66 7.0 9.0 0.01 0.06 0.06 99 1016.2
20170227164741 42 71 3.0 7.0 0.00 0.05 0.05 99 1016.3
20170227164641 42 93 2.0 7.0 0.00 0.05 0.05 99 1016.0
20170227164440 42 89 3.0 7.0 0.00 0.05 0.05 99 1016.0
20170227164241 42 77 3.0 7.0 0.00 0.05 0.05 99 1016.0
20170227164141 42 54 2.0 9.0 0.00 0.05 0.05 99 1015.9
20170227163741 42 71 5.0 9.0 0.00 0.05 0.05 99 1016.0
20170227163541 41 23 3.0 9.0 0.00 0.05 0.05 99 1016.0
20170227163440 41 20 3.0 9.0 0.00 0.05 0.05 99 1016.1
20170227163340 41 359 3.0 9.0 0.00 0.05 0.05 99 1016.1
20170227163240 41 17 4.0 9.0 0.00 0.05 0.05 99 1016.1
20170227163141 41 52 7.0 9.0 0.00 0.05 0.05 99 1016.0
20170227163041 41 36 1.0 8.0 0.00 0.05 0.05 99 1016.1
20170227162940 41 28 3.0 8.0 0.00 0.05 0.05 99 1016.0
20170227162840 41 27 3.0 8.0 0.00 0.05 0.05 99 1016.0
20170227162541 41 67 3.0 7.0 0.00 0.05 0.05 99 1016.1
20170227162441 41 65 2.0 6.0 0.00 0.05 0.05 99 1016.1
20170227162041 41 65 3.0 8.0 0.00 0.05 0.05 99 1016.0
20170227161941 41 63 1.0 8.0 0.00 0.05 0.05 99 1016.1
20170227161840 41 67 4.0 8.0 0.00 0.05 0.05 99 1016.0
20170227161740 41 61 3.0 8.0 0.00 0.05 0.05 99 1016.1
20170227161441 41 28 2.0 8.0 0.00 0.05 0.05 99 1016.0
20170227161340 41 18 2.0 8.0 0.00 0.05 0.05 99 1015.9
20170227161240 41 3 3.0 8.0 0.00 0.05 0.05 99 1016.1
20170227161141 41 342 6.0 8.0 0.00 0.05 0.05 99 1016.0
20170227161041 41 330 3.0 7.0 0.00 0.05 0.05 99 1016.0
20170227160941 41 318 3.0 6.0 0.00 0.05 0.05 99 1016.0
20170227160840 41 317 3.0 6.0 0.00 0.05 0.05 99 1016.0
20170227160740 41 317 2.0 6.0 0.00 0.05 0.05 99 1016.0
20170227160640 41 313 2.0 6.0 0.00 0.05 0.05 99 1016.1
20170227160540 41 319 2.0 6.0 0.00 0.05 0.05 99 1015.8
20170227160441 41 330 2.0 6.0 0.00 0.05 0.05 99 1016.0
20170227160241 41 357 2.0 6.0 0.00 0.05 0.05 99 1016.0
20170227160140 41 10 2.0 6.0 0.00 0.05 0.05 99 1015.9
20170227155741 41 37 3.0 6.0 0.00 0.05 0.05 99 1016.2
20170227155540 41 33 1.0 3.0 0.00 0.05 0.05 99 1015.9
20170227155440 41 35 1.0 3.0 0.00 0.05 0.05 99 1016.0
20170227155341 41 42 1.0 3.0 0.00 0.05 0.05 99 1015.9
20170227155241 41 5 1.0 3.0 0.00 0.05 0.05 99 1016.1
20170227155141 41 29 1.0 3.0 0.00 0.05 0.05 99 1016.0
20170227154840 41 14 1.0 3.0 0.00 0.05 0.05 99 1015.9
20170227154641 41 331 1.0 4.0 0.00 0.05 0.05 99 1015.9
20170227154541 41 315 2.0 4.0 0.00 0.05 0.05 99 1016.1
20170227154340 41 315 0.0 4.0 0.00 0.05 0.05 99 1016.0
20170227154141 41 314 1.0 4.0 0.00 0.05 0.05 99 1016.1
20170227153941 41 339 1.0 4.0 0.00 0.05 0.05 99 1016.1
20170227153541 41 359 0.0 6.0 0.00 0.05 0.05 99 1016.0
20170227153441 41 358 0.0 6.0 0.00 0.05 0.05 99 1015.8
20170227152841 41 315 2.0 6.0 0.00 0.05 0.05 99 1015.7
20170227152741 41 314 2.0 6.0 0.00 0.05 0.05 99 1015.9
20170227152640 41 318 3.0 6.0 0.00 0.05 0.05 99 1015.8
20170227152341 41 324 1.0 5.0 0.01 0.05 0.05 99 1015.8
20170227152240 41 330 2.0 5.0 0.01 0.05 0.05 99 1015.8
20170227151941 41 349 3.0 5.0 0.01 0.05 0.05 99 1015.7
20170227151841 41 344 2.0 5.0 0.01 0.05 0.05 99 1015.7
20170227151741 41 343 1.0 5.0 0.01 0.05 0.05 99 1015.6
20170227151240 41 334 1.0 5.0 0.01 0.05 0.05 99 1015.7
20170227151141 41 329 1.0 5.0 0.01 0.05 0.05 99 1015.7
20170227151040 41 322 0.0 5.0 0.01 0.05 0.05 99 1015.7
20170227150640 41 291 2.0 5.0 0.01 0.05 0.05 99 1015.7
20170227150341 41 348 1.0 5.0 0.01 0.05 0.05 99 1015.6
20170227150241 41 351 1.0 5.0 0.01 0.05 0.05 99 1015.7
20170227150140 41 20 1.0 5.0 0.01 0.05 0.05 99 1015.7
20170227150041 41 49 1.0 5.0 0.01 0.05 0.05 99 1015.9
20170227145941 41 39 0.0 5.0 0.01 0.05 0.05 99 1015.6
20170227145640 41 35 1.0 5.0 0.01 0.05 0.05 99 1015.6
20170227145441 41 37 3.0 5.0 0.01 0.05 0.05 99 1015.8
20170227145341 41 41 1.0 6.0 0.01 0.05 0.05 99 1015.9
20170227145241 41 94 1.0 6.0 0.01 0.05 0.05 99 1015.9
20170227145040 41 46 1.0 6.0 0.01 0.05 0.05 99 1016.0
20170227144841 41 53 1.0 6.0 0.01 0.05 0.05 99 1016.0
20170227144740 41 56 0.0 6.0 0.01 0.05 0.05 99 1015.8
20170227144641 41 50 2.0 6.0 0.01 0.05 0.05 99 1015.9
20170227144541 41 60 1.0 6.0 0.01 0.05 0.05 99 1016.0
20170227144241 41 2 1.0 5.0 0.01 0.05 0.05 99 1015.9
20170227144141 41 34 2.0 5.0 0.01 0.05 0.05 99 1015.9
20170227144041 41 60 2.0 5.0 0.02 0.05 0.05 99 1015.8
20170227143940 41 57 1.0 5.0 0.02 0.05 0.05 99 1016.0
20170227143840 41 4 1.0 5.0 0.02 0.05 0.05 99 1015.8
20170227143741 41 345 1.0 5.0 0.02 0.05 0.05 99 1015.9
20170227143641 41 2 1.0 5.0 0.02 0.05 0.05 99 1016.0
20170227143540 41 29 0.0 5.0 0.02 0.05 0.05 99 1015.8
20170227143441 41 49 1.0 5.0 0.02 0.05 0.05 99 1015.9
20170227143240 41 48 2.0 5.0 0.02 0.05 0.05 99 1015.7
20170227142940 41 37 3.0 5.0 0.02 0.05 0.05 99 1015.8
20170227142840 41 43 1.0 5.0 0.02 0.05 0.05 99 1015.9
20170227142741 40 45 2.0 5.0 0.02 0.05 0.05 99 1016.0
20170227142641 40 46 2.0 5.0 0.02 0.05 0.05 99 1016.2
20170227142540 40 45 2.0 5.0 0.02 0.05 0.05 99 1016.0
20170227142440 40 46 1.0 5.0 0.01 0.04 0.04 99 1016.1
20170227142240 40 59 1.0 5.0 0.01 0.04 0.04 99 1016.0
20170227142041 40 61 1.0 4.0 0.01 0.04 0.04 99 1015.9
20170227141941 40 62 1.0 4.0 0.01 0.04 0.04 99 1016.1
20170227141840 40 64 2.0 4.0 0.01 0.04 0.04 99 1016.0
20170227141640 40 84 2.0 4.0 0.01 0.04 0.04 99 1016.1
20170227141341 40 84 1.0 4.0 0.02 0.04 0.04 99 1016.2
20170227141240 40 83 1.0 4.0 0.02 0.04 0.04 99 1016.0
20170227141140 40 84 1.0 3.0 0.02 0.04 0.04 99 1016.0
20170227141041 40 85 1.0 3.0 0.02 0.04 0.04 99 1016.3
20170227140941 40 90 1.0 3.0 0.02 0.04 0.04 99 1016.2
20170227140742 40 84 2.0 4.0 0.02 0.04 0.04 99 1016.2
20170227140641 40 82 1.0 4.0 0.02 0.04 0.04 99 1016.3
20170227140540 40 77 1.0 4.0 0.02 0.04 0.04 99 1016.1
20170227140440 40 76 1.0 4.0 0.02 0.04 0.04 99 1016.1
20170227140340 40 76 1.0 4.0 0.02 0.04 0.04 99 1016.0
20170227140241 40 77 1.0 6.0 0.02 0.04 0.04 99 1016.2
20170227140140 40 79 1.0 6.0 0.02 0.04 0.04 99 1016.1
20170227140040 40 80 1.0 6.0 0.02 0.04 0.04 99 1016.2
20170227135940 40 77 1.0 6.0 0.02 0.04 0.04 99 1016.2
20170227135641 40 76 1.0 6.0 0.02 0.04 0.04 99 1016.4
20170227135541 40 80 3.0 7.0 0.02 0.04 0.04 99 1016.3
20170227135340 40 82 1.0 7.0 0.02 0.04 0.04 99 1016.6
20170227135241 40 77 3.0 7.0 0.02 0.04 0.04 99 1016.2
20170227135040 40 74 2.0 7.0 0.02 0.04 0.04 99 1016.5
20170227134940 40 78 3.0 7.0 0.02 0.04 0.04 99 1016.4
20170227134841 40 76 3.0 7.0 0.02 0.04 0.04 99 1016.3
20170227134640 40 77 5.0 7.0 0.02 0.04 0.04 99 1016.3
20170227134540 40 77 3.0 7.0 0.02 0.04 0.04 99 1016.4
20170227134141 40 87 3.0 7.0 0.01 0.02 0.02 99 1016.5
20170227134040 40 85 3.0 7.0 0.01 0.02 0.02 99 1016.4
20170227133940 40 83 3.0 7.0 0.01 0.02 0.02 99 1016.4
20170227133840 40 85 3.0 7.0 0.01 0.02 0.02 99 1016.3
20170227133741 40 84 3.0 7.0 0.01 0.02 0.02 99 1016.4
20170227133641 40 84 5.0 7.0 0.01 0.02 0.02 99 1016.2
20170227133340 40 75 3.0 8.0 0.01 0.02 0.02 99 1016.3
20170227133240 40 75 3.0 8.0 0.01 0.02 0.02 99 1016.3
20170227133141 40 72 3.0 8.0 0.01 0.02 0.02 99 1016.2
20170227133041 40 72 3.0 9.0 0.01 0.02 0.02 99 1016.3
20170227132640 40 76 5.0 9.0 0.02 0.02 0.02 99 1016.2
20170227132441 40 80 3.0 9.0 0.02 0.02 0.02 99 1016.2
20170227132340 40 84 3.0 9.0 0.02 0.02 0.02 99 1016.2
20170227132241 40 85 3.0 9.0 0.02 0.02 0.02 99 1016.3
20170227132040 40 88 6.0 9.0 0.02 0.02 0.02 99 1016.0
20170227131941 40 90 4.0 7.0 0.02 0.02 0.02 99 1016.3
20170227131841 40 90 4.0 7.0 0.02 0.02 0.02 99 1016.2
20170227131640 40 90 3.0 7.0 0.02 0.02 0.02 99 1016.1
20170227131440 40 90 5.0 7.0 0.01 0.01 0.01 99 1016.0
20170227131341 40 90 4.0 7.0 0.01 0.01 0.01 99 1016.0
20170227131241 40 86 5.0 7.0 0.01 0.01 0.01 99 1016.2
20170227131040 40 79 4.0 7.0 0.01 0.01 0.01 99 1016.2
20170227130840 40 77 3.0 7.0 0.01 0.01 0.01 99 1016.0
20170227130741 40 77 4.0 7.0 0.01 0.01 0.01 99 1016.0
20170227130641 40 77 4.0 7.0 0.01 0.01 0.01 99 1016.0
20170227130540 40 77 3.0 7.0 0.01 0.01 0.01 99 1016.0
20170227130445 40 76 3.0 7.0 0.01 0.01 0.01 99 1016.0
20170227130341 40 75 3.0 7.0 0.01 0.01 0.01 99 1016.0
20170227130241 40 77 5.0 7.0 0.01 0.01 0.01 99 1015.9
20170227130040 40 86 2.0 6.0 0.01 0.01 0.01 99 1015.9
20170227125940 40 85 2.0 6.0 0.01 0.01 0.01 99 1015.7
20170227125840 40 82 3.0 6.0 0.01 0.01 0.01 99 1015.6
20170227125540 40 78 4.0 6.0 0.01 0.01 0.01 99 1015.9
20170227125440 40 78 3.0 6.0 0.01 0.01 0.01 99 1016.0
20170227125340 40 79 5.0 6.0 0.01 0.01 0.01 99 1015.7
20170227125240 40 82 3.0 6.0 0.01 0.01 0.01 99 1015.8
20170227124941 40 75 4.0 8.0 0.01 0.01 0.01 99 1015.9
20170227124840 40 74 3.0 8.0 0.01 0.01 0.01 99 1015.9
20170227124740 40 77 4.0 8.0 0.01 0.01 0.01 99 1015.8
20170227124540 40 73 3.0 9.0 0.01 0.01 0.01 99 1015.6
20170227124441 40 73 4.0 9.0 0.01 0.01 0.01 99 1015.8
20170227124040 40 78 3.0 9.0 0.01 0.01 0.01 99 1015.6
20170227123940 40 74 5.0 9.0 0.01 0.01 0.01 99 1015.7
20170227123640 40 76 3.0 9.0 0.01 0.01 0.01 98 1015.7
20170227123440 40 77 3.0 7.0 0.01 0.01 0.01 98 1015.7
20170227123341 40 77 3.0 7.0 0.01 0.01 0.01 98 1015.7
20170227123241 41 74 4.0 7.0 0.01 0.01 0.01 97 1015.7
20170227123040 41 76 3.0 7.0 0.01 0.01 0.01 97 1015.6
20170227122940 41 77 6.0 7.0 0.01 0.01 0.01 97 1015.6
20170227122741 41 77 3.0 8.0 0.00 0.00 0.00 96 1015.5
20170227122440 41 69 3.0 8.0 0.00 0.00 0.00 95 1015.6
20170227122340 41 69 4.0 8.0 0.00 0.00 0.00 95 1015.8
20170227122240 41 69 3.0 8.0 0.00 0.00 0.00 94 1015.6
20170227122041 41 66 3.0 8.0 0.00 0.00 0.00 93 1015.7
20170227121940 41 65 4.0 8.0 0.00 0.00 0.00 93 1015.6
20170227121840 41 63 3.0 8.0 0.00 0.00 0.00 93 1015.6
20170227121741 41 68 3.0 8.0 0.00 0.00 0.00 93 1015.7
20170227121540 41 74 4.0 8.0 0.00 0.00 0.00 92 1015.6
20170227121441 41 78 3.0 8.0 0.00 0.00 0.00 91 1015.5
20170227121340 41 78 3.0 8.0 0.00 0.00 0.00 91 1015.6
20170227121141 41 83 4.0 8.0 0.00 0.00 0.00 90 1015.6
20170227121041 41 86 3.0 7.0 0.00 0.00 0.00 90 1015.6
20170227120840 41 87 4.0 7.0 0.00 0.00 0.00 89 1015.5
20170227120741 41 87 5.0 7.0 0.00 0.00 0.00 89 1015.6
20170227120641 41 87 5.0 7.0 0.00 0.00 0.00 86 1015.6
20170227120540 41 86 5.0 7.0 0.00 0.00 0.00 86 1015.6
20170227120440 41 86 5.0 7.0 0.00 0.00 0.00 86 1015.6
20170227120341 41 82 5.0 7.0 0.00 0.00 0.00 86 1015.6
20170227115840 41 69 4.0 8.0 0.00 0.00 0.00 86 1015.6
20170227115641 41 69 3.0 8.0 0.00 0.00 0.00 85 1015.8
20170227115540 41 66 4.0 8.0 0.00 0.00 0.00 85 1015.8
20170227115440 41 67 4.0 8.0 0.00 0.00 0.00 85 1015.7
20170227115140 42 70 4.0 8.0 0.00 0.00 0.00 84 1015.7
20170227115041 42 70 4.0 8.0 0.00 0.00 0.00 84 1015.7
20170227114740 42 78 5.0 8.0 0.00 0.00 0.00 83 1015.8
20170227114640 42 78 5.0 8.0 0.00 0.00 0.00 83 1015.6
20170227114541 42 79 5.0 8.0 0.00 0.00 0.00 83 1015.6
20170227114441 42 73 5.0 8.0 0.00 0.00 0.00 83 1015.6
20170227114340 42 77 3.0 7.0 0.00 0.00 0.00 83 1015.6
20170227114140 42 81 4.0 7.0 0.00 0.00 0.00 82 1015.5
20170227113841 42 79 5.0 7.0 0.00 0.00 0.00 80 1015.7
20170227113740 42 78 4.0 7.0 0.00 0.00 0.00 80 1015.6
20170227113640 42 78 4.0 7.0 0.00 0.00 0.00 80 1015.6
20170227113541 42 80 4.0 7.0 0.00 0.00 0.00 80 1015.7
20170227113240 42 83 3.0 7.0 0.00 0.00 0.00 79 1015.8
20170227113040 42 84 4.0 7.0 0.00 0.00 0.00 78 1015.7
20170227112941 42 85 3.0 7.0 0.00 0.00 0.00 78 1015.6
20170227112841 42 81 3.0 7.0 0.00 0.00 0.00 78 1015.7
20170227112740 42 78 3.0 7.0 0.00 0.00 0.00 77 1015.8
20170227112640 42 77 3.0 7.0 0.00 0.00 0.00 77 1015.8
20170227112441 42 76 3.0 7.0 0.00 0.00 0.00 76 1015.8
20170227112241 42 73 3.0 7.0 0.00 0.00 0.00 75 1015.4
20170227112141 42 73 3.0 7.0 0.00 0.00 0.00 75 1015.7
20170227112040 42 75 5.0 7.0 0.00 0.00 0.00 75 1015.5
20170227111840 42 68 3.0 6.0 0.00 0.00 0.00 74 1015.5
20170227111741 42 70 3.0 6.0 0.00 0.00 0.00 74 1015.2
20170227111640 42 70 3.0 6.0 0.00 0.00 0.00 74 1015.5
20170227111440 42 73 3.0 6.0 0.00 0.00 0.00 73 1015.2
20170227111341 42 70 3.0 6.0 0.00 0.00 0.00 73 1015.2
20170227111240 42 70 4.0 6.0 0.00 0.00 0.00 73 1015.2
20170227111141 42 71 3.0 6.0 0.00 0.00 0.00 73 1015.2
20170227111041 41 67 4.0 6.0 0.00 0.00 0.00 73 1015.0
20170227110841 41 79 2.0 4.0 0.00 0.00 0.00 72 1015.2
20170227110640 41 65 2.0 5.0 0.00 0.00 0.00 71 1015.2
20170227110241 41 64 3.0 5.0 0.00 0.00 0.00 69 1015.1
20170227110141 41 58 1.0 5.0 0.00 0.00 0.00 68 1015.1
20170227110040 41 57 1.0 5.0 0.00 0.00 0.00 68 1014.9
20170227105940 41 54 2.0 5.0 0.00 0.00 0.00 69 1015.2
20170227105840 41 50 2.0 5.0 0.00 0.00 0.00 68 1015.3
20170227105740 41 58 3.0 5.0 0.00 0.00 0.00 68 1015.1
20170227105641 41 68 2.0 4.0 0.00 0.00 0.00 68 1015.3
20170227105540 41 70 1.0 4.0 0.00 0.00 0.00 68 1015.3
20170227105440 41 71 3.0 4.0 0.00 0.00 0.00 68 1015.3
20170227105340 41 69 2.0 3.0 0.00 0.00 0.00 68 1015.3
20170227105041 41 78 1.0 3.0 0.00 0.00 0.00 67 1015.3
20170227104840 41 82 1.0 3.0 0.00 0.00 0.00 68 1015.0
20170227104640 41 77 1.0 3.0 0.00 0.00 0.00 67 1015.2
20170227104540 41 73 1.0 3.0 0.00 0.00 0.00 67 1015.1
20170227104440 41 83 1.0 3.0 0.00 0.00 0.00 67 1015.0
20170227103840 40 80 1.0 2.0 0.00 0.00 0.00 65 1014.9
20170227103740 40 70 1.0 2.0 0.00 0.00 0.00 65 1015.0
20170227103443 40 61 0.0 2.0 0.00 0.00 0.00 64 1014.9
20170227103342 41 55 1.0 2.0 0.00 0.00 0.00 63 1015.1
20170227103240 41 48 0.0 2.0 0.00 0.00 0.00 63 1015.0
20170227103140 41 45 0.0 2.0 0.00 0.00 0.00 62 1015.0
20170227103041 41 47 0.0 2.0 0.00 0.00 0.00 62 1015.0
20170227102940 41 49 0.0 2.0 0.00 0.00 0.00 62 1014.9
20170227102840 41 62 0.0 2.0 0.00 0.00 0.00 61 1015.0
20170227102740 41 75 0.0 2.0 0.00 0.00 0.00 60 1015.0
20170227102640 41 78 1.0 3.0 0.00 0.00 0.00 58 1014.9
20170227102441 41 69 1.0 3.0 0.00 0.00 0.00 57 1015.1
20170227102340 41 75 1.0 3.0 0.00 0.00 0.00 57 1015.1
20170227102240 41 75 0.0 3.0 0.00 0.00 0.00 56 1015.0
20170227102140 41 77 1.0 3.0 0.00 0.00 0.00 56 1015.1
20170227102040 41 71 1.0 3.0 0.00 0.00 0.00 56 1014.8
20170227101941 41 73 1.0 3.0 0.00 0.00 0.00 55 1015.0
20170227101741 41 70 1.0 3.0 0.00 0.00 0.00 54 1014.9
20170227101640 41 82 2.0 3.0 0.00 0.00 0.00 54 1015.0
20170227101540 41 95 1.0 3.0 0.00 0.00 0.00 54 1015.0
20170227101440 41 102 2.0 3.0 0.00 0.00 0.00 54 1014.8
20170227101341 41 109 2.0 3.0 0.00 0.00 0.00 54 1014.9
20170227101241 41 117 1.0 3.0 0.00 0.00 0.00 53 1014.9
20170227101040 41 123 1.0 3.0 0.00 0.00 0.00 53 1014.9
20170227100840 41 127 1.0 5.0 0.00 0.00 0.00 52 1014.7
20170227100640 41 121 2.0 5.0 0.00 0.00 0.00 52 1014.9
20170227100440 41 116 2.0 5.0 0.00 0.00 0.00 52 1014.8
20170227100340 41 110 2.0 6.0 0.00 0.00 0.00 52 1015.1
20170227100241 41 105 2.0 6.0 0.00 0.00 0.00 52 1015.2
20170227100140 41 101 2.0 6.0 0.00 0.00 0.00 52 1015.1
20170227100040 41 101 2.0 6.0 0.00 0.00 0.00 52 1015.0
20170227095940 41 97 2.0 7.0 0.00 0.00 0.00 52 1014.9
20170227095740 41 96 4.0 7.0 0.00 0.00 0.00 53 1015.1
20170227095641 41 96 2.0 7.0 0.00 0.00 0.00 52 1015.1
20170227095540 41 96 2.0 7.0 0.00 0.00 0.00 52 1015.0
20170227095440 42 93 4.0 7.0 0.00 0.00 0.00 52 1015.0
20170227095340 41 96 3.0 7.0 0.00 0.00 0.00 52 1015.0
20170227095240 42 96 3.0 7.0 0.00 0.00 0.00 52 1014.8
20170227095141 41 96 3.0 7.0 0.00 0.00 0.00 51 1014.9
20170227094940 42 93 5.0 7.0 0.00 0.00 0.00 51 1014.7
20170227094840 41 96 5.0 7.0 0.00 0.00 0.00 50 1014.9
20170227094740 41 95 4.0 7.0 0.00 0.00 0.00 50 1014.8
20170227094440 42 94 3.0 7.0 0.00 0.00 0.00 48 1014.9
20170227094140 42 103 6.0 7.0 0.00 0.00 0.00 47 1014.8
20170227094040 42 109 3.0 11.0 0.00 0.00 0.00 47 1014.8
20170227093941 42 109 5.0 11.0 0.00 0.00 0.00 47 1015.0
20170227093840 42 109 5.0 11.0 0.00 0.00 0.00 46 1014.8
20170227093740 42 109 3.0 11.0 0.00 0.00 0.00 46 1014.8
20170227093640 42 105 3.0 11.0 0.00 0.00 0.00 45 1014.7
20170227093541 42 105 3.0 11.0 0.00 0.00 0.00 45 1014.9
20170227093440 42 105 5.0 11.0 0.00 0.00 0.00 45 1014.9
20170227093040 42 86 5.0 11.0 0.00 0.00 0.00 44 1014.5
20170227092840 42 82 5.0 9.0 0.00 0.00 0.00 44 1014.6
20170227092741 42 82 4.0 9.0 0.00 0.00 0.00 44 1014.6
20170227092240 42 79 3.0 9.0 0.00 0.00 0.00 44 1014.7
20170227092140 41 82 5.0 9.0 0.00 0.00 0.00 44 1014.8
20170227091940 41 76 6.0 9.0 0.00 0.00 0.00 44 1014.6
20170227091844 41 75 5.0 9.0 0.00 0.00 0.00 44 1014.6
20170227091740 41 76 3.0 9.0 0.00 0.00 0.00 44 1014.7
20170227091641 41 78 4.0 9.0 0.00 0.00 0.00 44 1014.7
20170227091540 41 74 5.0 9.0 0.00 0.00 0.00 44 1014.5
20170227091440 41 78 6.0 7.0 0.00 0.00 0.00 44 1014.4
20170227091341 41 79 3.0 6.0 0.00 0.00 0.00 44 1014.5
20170227091240 41 81 3.0 6.0 0.00 0.00 0.00 44 1014.6
20170227091140 41 78 3.0 6.0 0.00 0.00 0.00 44 1014.6
20170227091040 41 83 3.0 6.0 0.00 0.00 0.00 44 1014.6
20170227090940 41 87 3.0 6.0 0.00 0.00 0.00 44 1014.5
20170227090840 41 87 3.0 6.0 0.00 0.00 0.00 44 1014.6
20170227090741 41 83 3.0 6.0 0.00 0.00 0.00 44 1014.4
20170227090640 41 80 2.0 5.0 0.00 0.00 0.00 44 1014.4
20170227090540 41 82 3.0 5.0 0.00 0.00 0.00 44 1014.4
20170227090440 41 78 2.0 5.0 0.00 0.00 0.00 44 1014.5
20170227090340 41 73 3.0 5.0 0.00 0.00 0.00 44 1014.6
20170227090141 41 74 3.0 5.0 0.00 0.00 0.00 45 1014.2
20170227090040 41 68 2.0 5.0 0.00 0.00 0.00 45 1014.5
20170227085940 41 68 3.0 5.0 0.00 0.00 0.00 45 1014.3
20170227085840 41 67 3.0 5.0 0.00 0.00 0.00 45 1014.4
20170227085741 41 68 3.0 5.0 0.00 0.00 0.00 45 1014.2
20170227085540 41 67 3.0 5.0 0.00 0.00 0.00 45 1014.5
20170227085241 41 64 2.0 5.0 0.00 0.00 0.00 45 1014.5
20170227085140 41 58 3.0 5.0 0.00 0.00 0.00 45 1014.6
20170227084941 41 61 2.0 4.0 0.00 0.00 0.00 45 1014.2
20170227084841 41 63 1.0 4.0 0.00 0.00 0.00 45 1014.4
20170227084640 41 69 1.0 4.0 0.00 0.00 0.00 45 1014.2
20170227084440 41 85 1.0 3.0 0.00 0.00 0.00 45 1014.2
20170227084340 41 90 1.0 3.0 0.00 0.00 0.00 45 1014.4
20170227084140 40 96 1.0 3.0 0.00 0.00 0.00 45 1014.6
20170227084040 40 92 1.0 3.0 0.00 0.00 0.00 45 1014.5
20170227083740 40 87 0.0 4.0 0.00 0.00 0.00 45 1014.2
20170227083641 40 88 1.0 4.0 0.00 0.00 0.00 45 1014.3
20170227083440 40 86 2.0 4.0 0.00 0.00 0.00 45 1014.1
20170227083340 40 85 1.0 4.0 0.00 0.00 0.00 45 1014.3
20170227083241 40 85 1.0 4.0 0.00 0.00 0.00 44 1014.0
20170227083140 41 83 1.0 4.0 0.00 0.00 0.00 44 1013.9
20170227083040 41 87 0.0 4.0 0.00 0.00 0.00 44 1014.0
20170227082940 41 87 1.0 4.0 0.00 0.00 0.00 44 1014.2
20170227082540 41 84 1.0 3.0 0.00 0.00 0.00 44 1014.0
20170227082140 41 90 1.0 3.0 0.00 0.00 0.00 41 1014.3
20170227082040 41 86 1.0 3.0 0.00 0.00 0.00 40 1014.0
20170227081740 41 75 2.0 3.0 0.00 0.00 0.00 40 1014.0
20170227081640 41 74 2.0 3.0 0.00 0.00 0.00 40 1014.0
20170227081441 41 80 1.0 3.0 0.00 0.00 0.00 41 1014.0
20170227081140 41 79 0.0 3.0 0.00 0.00 0.00 38 1013.9
20170227081040 41 84 0.0 3.0 0.00 0.00 0.00 39 1013.8
20170227080841 41 88 1.0 2.0 0.00 0.00 0.00 39 1013.8
20170227080640 41 90 1.0 2.0 0.00 0.00 0.00 38 1014.0
20170227080540 41 90 1.0 2.0 0.00 0.00 0.00 38 1013.9
20170227080440 41 90 1.0 2.0 0.00 0.00 0.00 38 1013.8
20170227080341 41 90 1.0 2.0 0.00 0.00 0.00 38 1013.7
20170227075940 41 85 1.0 2.0 0.00 0.00 0.00 38 1013.9
20170227075740 41 85 1.0 2.0 0.00 0.00 0.00 38 1013.7
20170227075540 41 86 0.0 2.0 0.00 0.00 0.00 38 1013.7
20170227075440 41 86 0.0 2.0 0.00 0.00 0.00 38 1013.6
20170227075240 41 86 1.0 3.0 0.00 0.00 0.00 40 1013.8
20170227075140 41 90 1.0 3.0 0.00 0.00 0.00 40 1013.7
20170227074741 41 90 0.0 3.0 0.00 0.00 0.00 40 1013.5
20170227074641 41 90 1.0 3.0 0.00 0.00 0.00 39 1013.7
20170227074340 42 90 1.0 3.0 0.00 0.00 0.00 38 1013.9
20170227074240 42 91 1.0 3.0 0.00 0.00 0.00 37 1013.7
20170227074040 42 95 1.0 2.0 0.00 0.00 0.00 37 1013.7
20170227073940 42 91 0.0 2.0 0.00 0.00 0.00 37 1013.5